FW4334 Weather Reports


time (UTC)temp
C
wind
direction
speed
KPH
gust
KPH
rain 1hr
cm
rain 24hr
cm
rain mn
cm
humidity
%
barometer
mb
20260906123011 25 238 0.0 0.0 0.00 0.00 0.00 94 1012.6
20260906122505 25 235 0.0 0.0 0.00 0.00 0.00 94 1012.7
20260906122005 25 235 0.0 0.0 0.00 0.00 0.00 94 1012.8
20260906121505 25 232 0.0 0.0 0.00 0.00 0.00 94 1012.8
20260906121004 25 232 0.0 0.0 0.00 0.00 0.00 94 1012.8
20260906120503 24 232 0.0 0.0 0.00 0.00 0.00 94 1012.8
20260906120003 24 232 0.0 0.0 0.00 0.00 0.00 94 1012.8
20260906115502 24 232 0.0 4.8 0.00 0.00 0.00 95 1012.8
20260906115001 24 216 0.0 3.2 0.00 0.00 0.00 95 1012.7
20260906114501 24 194 0.0 0.0 0.00 0.00 0.00 95 1012.6
20260906114004 24 192 0.0 0.0 0.00 0.00 0.00 94 1012.6
20260906113600 24 192 0.0 0.0 0.00 0.00 0.00 94 1012.6
20260906113201 24 192 0.0 0.0 0.00 0.00 0.00 94 1012.5
20260906112559 24 192 0.0 0.0 0.00 0.00 0.00 94 1012.4
20260906112059 24 192 0.0 0.0 0.00 0.00 0.00 94 1012.3
20260906111559 24 192 0.0 0.0 0.00 0.00 0.00 94 1012.1
20260906111101 24 192 0.0 0.0 0.00 0.00 0.00 94 1012.1
20260906110600 24 192 0.0 0.0 0.00 0.00 0.00 94 1012.1
20260906110100 24 192 0.0 0.0 0.00 0.00 0.00 94 1012.0
20260906105557 24 192 0.0 0.0 0.00 0.00 0.00 94 1012.0
20260906105057 24 192 0.0 1.6 0.00 0.00 0.00 94 1011.9
20260906104556 24 192 0.0 1.6 0.00 0.00 0.00 94 1011.9
20260906104058 24 192 0.0 1.6 0.00 0.00 0.00 94 1011.9
20260906103556 24 192 0.0 0.0 0.00 0.00 0.00 94 1011.9
20260906103056 24 192 0.0 0.0 0.00 0.00 0.00 94 1011.8
20260906102554 24 192 0.0 3.2 0.00 0.00 0.00 94 1011.8
20260906102054 24 192 0.0 0.0 0.00 0.00 0.00 94 1011.8
20260906101554 24 192 0.0 0.0 0.00 0.00 0.00 94 1011.7
20260906101053 24 192 0.0 0.0 0.00 0.00 0.00 94 1011.7
20260906100553 24 192 0.0 0.0 0.00 0.00 0.00 94 1011.8
20260906100052 24 192 0.0 0.0 0.00 0.00 0.00 94 1011.8
20260906095551 24 192 0.0 0.0 0.00 0.00 0.00 94 1011.8
20260906095051 24 192 0.0 0.0 0.00 0.00 0.00 94 1011.7
20260906094552 24 192 0.0 0.0 0.00 0.00 0.00 94 1011.8
20260906094050 24 192 0.0 0.0 0.00 0.00 0.00 94 1011.8
20260906093552 24 192 0.0 0.0 0.00 0.00 0.00 94 1011.7
20260906093100 24 192 0.0 0.0 0.00 0.00 0.00 94 1011.6
20260906092549 24 192 0.0 0.0 0.00 0.00 0.00 94 1011.5
20260906092049 24 192 0.0 0.0 0.00 0.00 0.00 94 1011.5
20260906091549 24 192 0.0 0.0 0.00 0.00 0.00 94 1011.5
20260906091049 24 192 0.0 0.0 0.00 0.00 0.00 94 1011.6
20260906090548 24 192 0.0 0.0 0.00 0.00 0.00 94 1011.5
20260906090048 24 192 0.0 0.0 0.00 0.00 0.00 94 1011.5
20260906085547 24 192 0.0 0.0 0.00 0.00 0.00 94 1011.3
20260906085047 24 192 0.0 0.0 0.00 0.00 0.00 94 1011.4
20260906084548 24 192 0.0 0.0 0.00 0.00 0.00 94 1011.5
20260906084048 24 192 0.0 0.0 0.00 0.00 0.00 94 1011.6
20260906083548 24 192 0.0 0.0 0.00 0.00 0.00 94 1011.3
20260906083049 24 192 0.0 0.0 0.00 0.00 0.00 94 1011.3
20260906082546 24 192 0.0 0.0 0.00 0.00 0.00 94 1011.3
20260906082050 25 192 0.0 0.0 0.00 0.00 0.00 94 1011.3
20260906081551 24 192 0.0 0.0 0.00 0.00 0.00 94 1011.1
20260906081045 24 192 0.0 0.0 0.00 0.00 0.00 93 1011.4
20260906080545 25 192 0.0 0.0 0.00 0.00 0.00 93 1011.3
20260906080045 25 192 0.0 0.0 0.00 0.00 0.00 93 1011.2
20260906075543 25 192 0.0 0.0 0.00 0.00 0.00 93 1011.1
20260906075043 25 192 0.0 0.0 0.00 0.00 0.00 93 1011.2
20260906074543 25 192 0.0 0.0 0.00 0.00 0.00 93 1011.2
20260906074042 25 192 0.0 0.0 0.00 0.00 0.00 93 1011.3
20260906073542 25 192 0.0 0.0 0.00 0.00 0.00 93 1011.4
20260906073042 25 192 0.0 0.0 0.00 0.00 0.00 93 1011.2
20260906072542 25 192 0.0 0.0 0.00 0.00 0.00 93 1011.1
20260906072043 25 192 0.0 0.0 0.00 0.00 0.00 93 1011.3
20260906071552 25 192 0.0 0.0 0.00 0.00 0.00 93 1011.3
20260906071045 25 192 0.0 0.0 0.00 0.00 0.00 93 1011.3
20260906070541 25 192 0.0 0.0 0.00 0.00 0.00 93 1011.3
20260906070040 25 192 0.0 0.0 0.00 0.00 0.00 93 1011.3
20260906065543 25 192 0.0 0.0 0.00 0.00 0.00 93 1011.3
20260906065040 25 192 0.0 0.0 0.00 0.00 0.00 93 1011.2
20260906064541 25 192 0.0 0.0 0.00 0.00 0.00 93 1011.2
20260906064041 25 192 0.0 0.0 0.00 0.00 0.00 93 1011.1
20260906063542 25 192 0.0 0.0 0.00 0.00 0.00 93 1011.3
20260906063038 25 192 0.0 0.0 0.00 0.00 0.00 93 1011.3
20260906062537 25 192 0.0 0.0 0.00 0.00 0.00 93 1011.3
20260906062040 25 192 0.0 0.0 0.00 0.00 0.00 93 1011.3
20260906061538 25 192 0.0 0.0 0.00 0.00 0.00 93 1011.5
20260906061036 25 192 0.0 0.0 0.00 0.00 0.00 93 1011.5
20260906060536 25 192 0.0 0.0 0.00 0.00 0.00 93 1011.5
20260906060034 25 192 0.0 1.6 0.00 0.00 0.00 93 1011.7
20260906055533 25 192 0.0 1.6 0.00 0.00 0.00 93 1011.7
20260906055034 25 192 0.0 0.0 0.00 0.00 0.00 93 1011.8
20260906054534 25 192 0.0 0.0 0.00 0.00 0.00 93 1011.9
20260906054033 25 192 0.0 0.0 0.00 0.00 0.00 93 1011.9
20260906053535 25 192 0.0 0.0 0.00 0.00 0.00 93 1012.0
20260906053036 25 192 0.0 0.0 0.00 0.00 0.00 93 1011.9
20260906052533 25 192 0.0 0.0 0.00 0.00 0.00 93 1011.8
20260906052031 25 192 0.0 0.0 0.00 0.00 0.00 93 1011.8
20260906051534 25 192 0.0 0.0 0.00 0.00 0.00 93 1011.8
20260906051031 25 192 0.0 1.6 0.00 0.00 0.00 93 1011.7
20260906050534 25 192 0.0 1.6 0.00 0.00 0.00 93 1011.9
20260906050052 25 192 0.0 4.8 0.00 0.00 0.00 93 1011.9
20260906045530 26 192 0.0 4.8 0.00 0.00 0.00 93 1012.0
20260906045029 26 193 0.0 0.0 0.00 0.00 0.00 93 1011.8
20260906044529 26 192 0.0 0.0 0.00 0.00 0.00 93 1011.9
20260906044031 26 193 0.0 0.0 0.00 0.00 0.00 93 1012.1
20260906043526 26 192 0.0 1.6 0.00 0.00 0.00 93 1012.1
20260906043027 26 192 0.0 4.8 0.00 0.00 0.00 93 1012.2
20260906042525 26 192 0.0 3.2 0.00 0.00 0.00 93 1012.3
20260906042025 26 188 0.0 0.0 0.00 0.00 0.00 93 1012.3
20260906041524 26 188 0.0 0.0 0.00 0.00 0.00 93 1012.3
20260906041022 26 188 0.0 0.0 0.00 0.00 0.00 93 1012.4
20260906040523 26 188 0.0 0.0 0.00 0.00 0.00 93 1012.3
20260906040022 26 188 0.0 0.0 0.00 0.00 0.00 93 1012.4
20260906035521 26 188 0.0 0.0 0.00 0.00 0.00 93 1012.5
20260906035021 26 188 0.0 0.0 0.00 0.00 0.00 93 1012.5
20260906034531 26 188 0.0 0.0 0.00 0.00 0.00 93 1012.5
20260906034021 26 188 0.0 0.0 0.00 0.00 0.00 92 1012.6
20260906033520 26 188 0.0 0.0 0.00 0.00 0.00 92 1012.6
20260906033025 26 188 0.0 0.0 0.00 0.00 0.00 92 1012.6
20260906032520 26 188 0.0 0.0 0.00 0.00 0.00 92 1012.7
20260906032020 26 188 0.0 0.0 0.00 0.00 0.00 92 1012.8
20260906031525 26 188 0.0 0.0 0.00 0.00 0.00 92 1012.8
20260906031021 26 188 0.0 0.0 0.00 0.00 0.00 92 1012.7
20260906030523 26 188 0.0 0.0 0.00 0.00 0.00 92 1012.7
20260906030020 26 188 0.0 0.0 0.00 0.00 0.00 92 1012.5
20260906025519 26 188 0.0 0.0 0.00 0.00 0.00 92 1012.5
20260906025019 26 188 0.0 3.2 0.00 0.00 0.00 92 1012.5
20260906024518 26 186 0.0 4.8 0.00 0.00 0.00 92 1012.5
20260906024019 26 188 1.6 4.8 0.00 0.00 0.00 92 1012.6
20260906023519 26 200 0.0 4.8 0.00 0.00 0.00 92 1012.6
20260906023024 26 202 0.0 0.0 0.00 0.00 0.00 92 1012.6
20260906022518 26 192 0.0 0.0 0.00 0.00 0.00 92 1012.5
20260906022018 26 192 0.0 0.0 0.00 0.00 0.00 92 1012.6
20260906021519 26 192 0.0 0.0 0.00 0.00 0.00 92 1012.5
20260906021018 26 186 0.0 0.0 0.00 0.00 0.00 92 1012.5
20260906020521 27 186 0.0 0.0 0.00 0.00 0.00 92 1012.3
20260906020017 27 186 0.0 0.0 0.00 0.00 0.00 92 1012.1
20260906015516 27 187 0.0 0.0 0.00 0.00 0.00 92 1012.0
20260906015018 27 187 0.0 0.0 0.00 0.00 0.00 92 1011.9
20260906014516 27 187 0.0 0.0 0.00 0.00 0.00 92 1011.9
20260906014018 27 186 0.0 0.0 0.00 0.00 0.00 92 1011.8
20260906013515 27 186 0.0 0.0 0.00 0.00 0.00 92 1011.9
20260906013015 27 186 0.0 0.0 0.00 0.00 0.00 92 1011.9
20260906012615 27 186 0.0 0.0 0.00 0.00 0.00 92 1011.9
20260906012014 27 186 0.0 0.0 0.00 0.00 0.00 92 1011.9
20260906011514 27 180 0.0 3.2 0.00 0.00 0.00 91 1011.9
20260906011013 27 180 0.0 3.2 0.00 0.00 0.00 91 1011.9
20260906010516 27 180 0.0 1.6 0.00 0.00 0.00 91 1011.8
20260906010011 27 185 0.0 1.6 0.00 0.00 0.00 91 1011.7
20260906005515 27 184 0.0 0.0 0.00 0.03 0.00 91 1011.7
20260906005012 27 184 0.0 1.6 0.00 0.03 0.00 91 1011.5
20260906004512 27 184 0.0 1.6 0.00 0.03 0.00 91 1011.5
20260906004011 27 180 0.0 0.0 0.00 0.03 0.00 91 1011.5
20260906003514 27 180 0.0 0.0 0.00 0.03 0.00 90 1011.5
20260906003011 27 180 0.0 0.0 0.00 0.03 0.00 90 1011.6
20260906002512 27 180 0.0 0.0 0.00 0.03 0.00 90 1011.4
20260906002011 27 180 0.0 0.0 0.00 0.03 0.00 90 1011.3
20260906001510 27 180 0.0 0.0 0.00 0.03 0.00 90 1011.3
20260906001010 27 180 0.0 0.0 0.00 0.03 0.00 89 1011.2
20260906000510 27 180 0.0 0.0 0.00 0.03 0.00 89 1011.1
20260906000010 28 180 0.0 0.0 0.00 0.03 0.00 89 1011.0
20260905235510 28 180 0.0 4.8 0.00 0.03 0.00 89 1011.0
20260905235009 28 180 0.0 4.8 0.00 0.03 0.00 88 1011.0
20260905234509 28 173 0.0 6.4 0.00 0.03 0.00 88 1011.0
20260905234012 28 197 1.6 6.4 0.00 0.03 0.00 87 1010.9
20260905233510 28 153 0.0 6.4 0.00 0.03 0.00 87 1011.0
20260905233020 28 157 1.6 6.4 0.00 0.03 0.00 86 1011.0
20260905232514 29 165 0.0 3.2 0.00 0.03 0.00 86 1011.1
20260905232008 29 165 0.0 4.8 0.00 0.03 0.00 85 1011.0
20260905231508 29 165 0.0 4.8 0.00 0.03 0.00 86 1011.0
20260905231006 29 209 0.0 4.8 0.00 0.03 0.00 86 1011.0
20260905230506 29 210 0.0 3.2 0.00 0.03 0.00 86 1011.2
20260905230005 29 210 0.0 4.8 0.00 0.03 0.00 85 1011.2
20260905225504 29 211 0.0 4.8 0.00 0.03 0.00 85 1011.3
20260905225004 29 192 0.0 0.0 0.00 0.03 0.00 85 1011.5
20260905224508 29 192 0.0 0.0 0.00 0.03 0.00 85 1011.4
20260905224004 29 192 0.0 4.8 0.00 0.03 0.00 85 1011.7
20260905223503 29 190 0.0 4.8 0.00 0.03 0.00 85 1011.7
20260905223003 29 199 0.0 3.2 0.00 0.03 0.00 85 1011.7
20260905222503 29 155 0.0 3.2 0.00 0.03 0.00 85 1011.7
20260905222003 29 156 0.0 4.8 0.00 0.03 0.00 85 1011.9
20260905221502 29 198 0.0 6.4 0.00 0.03 0.00 85 1011.9
20260905221002 29 201 0.0 6.4 0.00 0.03 0.00 85 1011.9
20260905220501 29 184 0.0 4.8 0.00 0.03 0.00 85 1012.0
20260905220002 28 158 1.6 8.0 0.00 0.03 0.00 85 1011.9
20260905215500 28 211 1.6 8.0 0.00 0.03 0.00 85 1012.0
20260905215000 28 218 0.0 6.4 0.00 0.03 0.00 85 1012.0
20260905214501 28 213 1.6 8.0 0.00 0.03 0.00 85 1012.0
20260905214001 28 208 0.0 8.0 0.00 0.03 0.00 86 1012.0
20260905213602 28 154 0.0 4.8 0.00 0.03 0.00 87 1012.0
20260905213111 28 128 0.0 4.8 0.00 0.03 0.00 86 1011.8
20260905212600 28 200 0.0 4.8 0.00 0.03 0.00 87 1011.9
20260905212059 28 155 1.6 11.3 0.00 0.03 0.00 88 1012.0
20260905211602 28 186 4.8 11.3 0.00 0.03 0.00 88 1012.0
20260905211059 27 126 0.0 4.8 0.00 0.03 0.00 88 1012.1
20260905210559 27 125 1.6 3.2 0.00 0.03 0.00 88 1011.9
20260905210059 27 202 0.0 3.2 0.00 0.03 0.00 88 1012.0
20260905205558 27 134 0.0 3.2 0.00 0.03 0.00 88 1012.2
20260905205100 27 134 1.6 4.8 0.00 0.03 0.00 88 1012.1
20260905204558 27 142 0.0 4.8 0.00 0.03 0.00 88 1012.1
20260905204059 27 143 1.6 9.7 0.00 0.03 0.00 88 1012.3
20260905203600 27 138 1.6 9.7 0.00 0.03 0.00 88 1012.4
20260905203057 28 145 1.6 6.4 0.00 0.03 0.00 87 1012.3
20260905202556 28 190 1.6 4.8 0.00 0.03 0.00 86 1012.2
20260905202057 28 159 1.6 4.8 0.00 0.03 0.00 86 1012.2
20260905201600 28 182 0.0 4.8 0.00 0.03 0.00 86 1012.2
20260905201056 28 157 0.0 3.2 0.00 0.03 0.00 85 1012.1
20260905200556 28 117 1.6 3.2 0.00 0.03 0.00 85 1012.1
20260905200059 28 114 0.0 3.2 0.00 0.03 0.00 84 1012.1
20260905195555 29 113 1.6 3.2 0.00 0.03 0.00 83 1012.3
20260905195055 29 111 0.0 1.6 0.00 0.03 0.00 83 1012.4
20260905194559 29 111 0.0 3.2 0.00 0.03 0.00 83 1012.5
20260905194056 30 111 1.6 3.2 0.00 0.03 0.00 81 1012.4
20260905193556 30 69 0.0 3.2 0.00 0.03 0.00 80 1012.4
20260905193055 30 69 0.0 3.2 0.00 0.03 0.00 80 1012.7
20260905192558 30 69 0.0 0.0 0.00 0.03 0.00 79 1012.8
20260905192057 30 69 0.0 0.0 0.00 0.03 0.00 80 1012.3
20260905191603 30 69 0.0 1.6 0.00 0.03 0.00 81 1012.1
20260905191054 30 69 0.0 3.2 0.00 0.03 0.00 80 1012.4
20260905190556 30 69 0.0 3.2 0.00 0.03 0.00 82 1012.7
20260905190053 30 71 0.0 3.2 0.00 0.03 0.00 82 1013.1
20260905185556 30 71 0.0 8.0 0.00 0.03 0.00 81 1013.1
20260905185055 30 71 1.6 8.0 0.00 0.03 0.00 81 1012.7
20260905184606 30 306 0.0 4.8 0.00 0.03 0.00 82 1013.0
20260905184052 30 351 0.0 4.8 0.00 0.03 0.00 80 1012.7
20260905183553 30 351 0.0 4.8 0.00 0.03 0.00 78 1012.6
20260905183053 31 328 1.6 6.4 0.00 0.03 0.00 77 1013.0
20260905182555 31 332 1.6 8.0 0.00 0.03 0.00 75 1013.1
20260905182055 32 338 1.6 19.3 0.00 0.03 0.00 74 1012.8
20260905181552 33 339 4.8 12.9 0.00 0.03 0.00 71 1012.6
20260905181051 34 336 1.6 6.4 0.00 0.03 0.00 69 1012.6
20260905180549 34 293 1.6 6.4 0.00 0.03 0.00 69 1012.6
20260905180051 35 314 0.0 8.0 0.00 0.03 0.00 68 1012.5
20260905175546 35 281 1.6 4.8 0.00 0.03 0.00 67 1012.5
20260905175045 34 18 0.0 1.6 0.00 0.03 0.00 69 1012.7
20260905174549 33 19 0.0 3.2 0.00 0.03 0.00 70 1012.8
20260905174041 33 30 0.0 6.4 0.00 0.03 0.00 72 1012.8
20260905173541 33 284 0.0 6.4 0.00 0.03 0.00 72 1013.0
20260905173039 32 323 1.6 4.8 0.00 0.03 0.00 73 1013.0
20260905172542 33 277 1.6 4.8 0.00 0.03 0.00 72 1013.1
20260905172038 32 299 0.0 3.2 0.00 0.03 0.00 76 1013.2
20260905171538 32 299 0.0 4.8 0.00 0.03 0.00 78 1013.3
20260905171035 32 290 0.0 4.8 0.00 0.03 0.00 78 1013.4
20260905170534 31 298 0.0 9.7 0.00 0.03 0.00 79 1013.5
20260905170035 31 344 3.2 9.7 0.00 0.03 0.00 78 1013.6
20260905165534 31 321 0.0 4.8 0.00 0.03 0.00 79 1013.6
20260905165034 31 344 0.0 3.2 0.00 0.03 0.00 79 1013.9
20260905164536 31 343 0.0 6.4 0.00 0.03 0.00 80 1014.1
20260905164034 31 346 0.0 6.4 0.00 0.03 0.00 78 1014.1
20260905163533 31 334 0.0 8.0 0.00 0.03 0.00 73 1014.3
20260905163035 32 302 3.2 8.0 0.00 0.03 0.00 73 1014.3
20260905162535 32 324 1.6 6.4 0.00 0.03 0.00 77 1014.1
20260905162030 31 318 0.0 6.4 0.00 0.03 0.00 77 1014.3
20260905161530 31 319 1.6 6.4 0.00 0.03 0.00 78 1014.4
20260905161029 31 274 1.6 6.4 0.00 0.03 0.00 79 1014.4
20260905160527 31 346 1.6 6.4 0.00 0.03 0.00 79 1014.5
20260905160043 31 283 3.2 11.3 0.00 0.03 0.00 79 1014.5
20260905155525 31 294 1.6 11.3 0.00 0.03 0.00 80 1014.7
20260905155023 30 340 0.0 8.0 0.00 0.03 0.00 83 1014.7
20260905154524 30 188 1.6 8.0 0.00 0.03 0.00 82 1014.7
20260905154024 30 286 0.0 4.8 0.00 0.03 0.00 83 1014.8
20260905153524 30 286 0.0 8.0 0.00 0.03 0.00 83 1014.8
20260905153024 30 306 1.6 8.0 0.00 0.03 0.00 84 1014.7
20260905152522 30 334 0.0 6.4 0.00 0.03 0.00 84 1014.8
20260905152023 30 180 0.0 6.4 0.00 0.03 0.00 86 1014.8
20260905151520 30 302 1.6 6.4 0.00 0.03 0.00 85 1014.8
20260905151022 30 323 1.6 4.8 0.00 0.03 0.00 86 1014.7
20260905150516 29 205 3.2 6.4 0.00 0.03 0.00 87 1014.9
20260905150023 29 240 1.6 8.0 0.00 0.03 0.00 87 1014.9
20260905145516 28 198 1.6 8.0 0.00 0.03 0.00 88 1015.0
20260905145013 28 197 1.6 8.0 0.00 0.03 0.00 88 1015.0
20260905144536 28 278 1.6 6.4 0.00 0.03 0.00 88 1015.0
20260905144016 28 290 1.6 6.4 0.00 0.03 0.00 90 1015.0
20260905143511 28 217 0.0 3.2 0.00 0.03 0.00 89 1015.0
20260905143018 28 261 0.0 6.4 0.00 0.03 0.00 90 1015.1
20260905142508 28 261 1.6 6.4 0.00 0.03 0.00 90 1015.1
20260905142010 27 205 0.0 4.8 0.00 0.03 0.00 90 1015.0
20260905141506 27 205 0.0 6.4 0.00 0.03 0.00 91 1014.9
20260905141007 27 219 0.0 4.8 0.00 0.03 0.00 91 1015.0
20260905140504 27 39 0.0 4.8 0.00 0.03 0.00 91 1015.0
20260905140003 27 309 0.0 4.8 0.00 0.03 0.00 91 1015.0
20260905135501 27 225 0.0 8.0 0.00 0.03 0.00 91 1015.0
20260905135100 27 199 1.6 8.0 0.00 0.03 0.00 92 1014.9
20260905134607 26 254 0.0 4.8 0.00 0.03 0.00 92 1014.8
20260905134100 26 200 1.6 4.8 0.00 0.03 0.00 92 1014.8
20260905133558 26 289 0.0 3.2 0.00 0.03 0.00 93 1014.9
20260905133059 26 227 0.0 4.8 0.00 0.03 0.00 93 1014.8
20260905132556 26 278 0.0 4.8 0.00 0.03 0.00 94 1014.9
20260905132055 26 280 0.0 3.2 0.00 0.03 0.00 94 1014.8
20260905131558 25 288 1.6 4.8 0.00 0.03 0.00 95 1014.8
20260905131055 25 246 1.6 4.8 0.00 0.03 0.00 95 1014.9
20260905130552 25 271 0.0 0.0 0.00 0.03 0.00 95 1014.9
20260905130055 25 224 0.0 0.0 0.00 0.03 0.00 95 1014.9
20260905125549 25 215 0.0 0.0 0.00 0.03 0.00 95 1014.9
20260905125048 25 215 0.0 0.0 0.00 0.03 0.00 95 1014.9
20260905124547 25 214 0.0 0.0 0.00 0.03 0.00 95 1014.9
20260905124046 24 214 0.0 0.0 0.00 0.03 0.00 95 1015.0
20260905123545 24 214 0.0 3.2 0.00 0.03 0.00 95 1014.9